GW1515 Weather Reports


Display with metric or nautical units.
time (UTC)temp
F
wind
direction
speed
MPH
gust
MPH
rain 1hr
in
rain 24hr
in
rain mn
in
humidity
%
barometer
mb
20260902074037 79 205 5.0 8.0 0.00 0.00 0.00 83 1015.6
20260902073532 78 215 7.0 9.0 0.00 0.00 0.00 84 1015.3
20260902073029 78 200 3.0 5.0 0.00 0.00 0.00 84 1015.2
20260902072524 79 196 2.0 5.0 0.00 0.00 0.00 84 1015.4
20260902072021 79 170 2.0 4.0 0.00 0.00 0.00 84 1015.4
20260902071519 79 225 3.0 5.0 0.00 0.00 0.00 83 1015.3
20260902071016 79 176 3.0 5.0 0.00 0.00 0.00 83 1015.5
20260902070511 79 182 5.0 6.0 0.00 0.00 0.00 83 1015.6
20260902070007 79 181 5.0 6.0 0.00 0.00 0.00 83 1015.5
20260902065500 79 206 4.0 8.0 0.00 0.00 0.00 83 1015.4
20260902064955 79 205 5.0 8.0 0.00 0.00 0.00 83 1015.7
20260902064451 79 209 3.0 7.0 0.00 0.00 0.00 83 1015.5
20260902063946 79 198 7.0 8.0 0.00 0.00 0.00 83 1015.4
20260902063445 79 208 6.0 10.0 0.00 0.00 0.00 83 1015.5
20260902062941 79 202 10.0 10.0 0.00 0.00 0.00 83 1015.5
20260902062440 79 233 2.0 8.0 0.00 0.00 0.00 83 1015.5
20260902061935 79 178 3.0 8.0 0.00 0.00 0.00 84 1015.5
20260902061430 79 205 5.0 9.0 0.00 0.00 0.00 83 1015.4
20260902060926 79 201 6.0 8.0 0.00 0.00 0.00 83 1015.3
20260902060422 79 198 3.0 6.0 0.00 0.00 0.00 83 1015.5
20260902055918 80 204 3.0 11.0 0.00 0.00 0.00 82 1015.6
20260902055414 80 209 3.0 6.0 0.00 0.00 0.00 82 1015.4
20260902054909 80 214 4.0 6.0 0.00 0.00 0.00 82 1015.5
20260902054404 80 204 3.0 7.0 0.00 0.00 0.00 82 1015.5
20260902053859 80 186 4.0 6.0 0.00 0.00 0.00 82 1015.5
20260902053354 80 215 5.0 8.0 0.00 0.00 0.00 82 1015.5
20260902052853 80 215 3.0 7.0 0.00 0.00 0.00 82 1015.5
20260902052349 80 205 4.0 7.0 0.00 0.00 0.00 83 1015.7
20260902051843 80 203 3.0 6.0 0.00 0.00 0.00 83 1015.6
20260902051337 80 205 4.0 6.0 0.00 0.00 0.00 83 1015.5
20260902050832 80 192 2.0 6.0 0.00 0.00 0.00 84 1015.7
20260902050331 80 235 2.0 7.0 0.00 0.00 0.00 84 1015.7
20260902045826 80 213 3.0 6.0 0.00 0.05 0.05 85 1015.5
20260902045322 80 210 4.0 6.0 0.00 0.05 0.05 85 1015.4
20260902044819 80 212 4.0 7.0 0.00 0.05 0.05 85 1015.5
20260902044314 80 205 3.0 6.0 0.00 0.05 0.05 85 1015.8
20260902043808 80 199 4.0 6.0 0.00 0.05 0.05 85 1015.9
20260902043304 80 202 3.0 7.0 0.00 0.05 0.05 85 1015.8
20260902042803 80 182 5.0 9.0 0.00 0.05 0.05 85 1015.8
20260902042258 80 172 4.0 6.0 0.00 0.05 0.05 85 1015.8
20260902041753 80 173 2.0 7.0 0.00 0.05 0.05 85 1015.8
20260902041253 80 225 2.0 8.0 0.00 0.05 0.05 85 1015.6
20260902040752 80 203 5.0 7.0 0.00 0.05 0.05 85 1015.6
20260902040248 80 196 3.0 6.0 0.00 0.05 0.05 85 1015.7
20260902035746 80 190 3.0 5.0 0.00 0.05 0.05 85 1015.7
20260902035242 80 156 3.0 4.0 0.00 0.05 0.05 84 1015.7
20260902034741 81 212 2.0 4.0 0.00 0.05 0.05 84 1015.7
20260902034236 81 189 3.0 4.0 0.00 0.05 0.05 84 1015.7
20260902033734 81 212 2.0 5.0 0.00 0.05 0.05 84 1015.8
20260902033229 81 183 3.0 5.0 0.00 0.05 0.05 84 1015.6
20260902032727 81 219 6.0 7.0 0.00 0.05 0.05 84 1015.6
20260902032223 81 216 4.0 5.0 0.00 0.05 0.05 83 1015.7
20260902031723 81 212 4.0 5.0 0.00 0.05 0.05 83 1016.0
20260902031218 81 224 0.0 2.0 0.00 0.05 0.05 83 1015.7
20260902030714 82 235 2.0 4.0 0.00 0.05 0.05 82 1015.9
20260902030214 82 238 2.0 4.0 0.00 0.05 0.05 81 1015.7
20260902025713 82 194 2.0 6.0 0.00 0.05 0.05 80 1015.7
20260902025209 83 212 2.0 5.0 0.00 0.05 0.05 80 1015.6
20260902024703 83 201 3.0 6.0 0.00 0.05 0.05 80 1015.7
20260902024158 83 202 1.0 5.0 0.00 0.05 0.05 80 1015.4
20260902023654 83 216 4.0 8.0 0.00 0.05 0.05 79 1015.5
20260902023149 83 204 5.0 7.0 0.00 0.05 0.05 79 1015.5
20260902022648 83 217 5.0 7.0 0.00 0.05 0.05 79 1015.6
20260902022144 83 201 4.0 5.0 0.00 0.05 0.05 79 1015.6
20260902021640 84 207 3.0 7.0 0.00 0.05 0.05 78 1015.8
20260902021135 84 228 2.0 10.0 0.00 0.05 0.05 78 1015.6
20260902020631 84 211 5.0 7.0 0.00 0.05 0.05 78 1015.8
20260902020126 84 212 1.0 7.0 0.00 0.05 0.05 78 1015.5
20260902015622 84 233 3.0 6.0 0.00 0.05 0.05 78 1015.4
20260902015118 84 218 3.0 7.0 0.00 0.05 0.05 77 1015.4
20260902014613 84 214 3.0 8.0 0.00 0.05 0.05 77 1015.4
20260902014109 84 207 4.0 5.0 0.00 0.05 0.05 78 1015.3
20260902013608 84 238 2.0 8.0 0.00 0.05 0.05 78 1015.3
20260902013104 84 206 5.0 6.0 0.00 0.05 0.05 79 1015.2
20260902012559 84 208 3.0 6.0 0.00 0.05 0.05 80 1015.2
20260902012054 84 189 3.0 7.0 0.00 0.05 0.05 80 1015.2
20260902011550 84 234 2.0 4.0 0.00 0.05 0.05 80 1015.1
20260902011049 85 211 3.0 5.0 0.00 0.05 0.05 79 1015.0
20260902010549 85 214 2.0 5.0 0.00 0.05 0.05 79 1014.8
20260902010045 85 197 3.0 6.0 0.00 0.05 0.05 79 1014.7
20260902005542 85 197 3.0 4.0 0.00 0.05 0.05 79 1014.6
20260902005039 85 193 1.0 4.0 0.00 0.05 0.05 79 1014.8
20260902004538 86 188 3.0 4.0 0.00 0.05 0.05 78 1014.8
20260902004033 86 191 2.0 3.0 0.00 0.05 0.05 78 1014.9
20260902003529 86 185 3.0 4.0 0.00 0.05 0.05 77 1014.7
20260902003024 87 242 0.0 3.0 0.00 0.05 0.05 76 1014.9
20260902002520 87 214 2.0 5.0 0.00 0.05 0.05 75 1014.9
20260902002015 87 223 2.0 4.0 0.00 0.05 0.05 75 1014.8
20260902001509 88 206 2.0 3.0 0.00 0.05 0.05 74 1014.8
20260902001004 88 218 0.0 3.0 0.00 0.05 0.05 74 1014.9
20260902000459 89 227 3.0 5.0 0.00 0.05 0.05 72 1014.7
20260901235954 89 200 3.0 6.0 0.00 0.05 0.05 71 1014.8
20260901235448 89 199 1.0 4.0 0.00 0.05 0.05 71 1014.8
20260901234944 90 221 2.0 4.0 0.00 0.05 0.05 70 1014.8
20260901234438 90 223 2.0 4.0 0.00 0.05 0.05 70 1015.0
20260901233933 91 224 3.0 4.0 0.00 0.05 0.05 69 1015.0
20260901233428 91 228 2.0 5.0 0.00 0.05 0.05 69 1015.0
20260901232925 91 237 3.0 5.0 0.00 0.05 0.05 68 1015.0
20260901232425 91 212 3.0 5.0 0.00 0.05 0.05 68 1014.9
20260901231920 92 191 5.0 7.0 0.00 0.05 0.05 67 1014.9
20260901231416 92 204 2.0 6.0 0.00 0.05 0.05 67 1015.0
20260901230912 92 225 3.0 5.0 0.00 0.05 0.05 67 1015.0
20260901230412 93 182 4.0 7.0 0.00 0.05 0.05 65 1014.9
20260901225907 93 207 5.0 9.0 0.00 0.05 0.05 65 1014.9
20260901225406 93 222 3.0 6.0 0.00 0.05 0.05 66 1015.0
20260901224902 93 202 3.0 7.0 0.00 0.05 0.05 65 1015.0
20260901224358 93 241 3.0 9.0 0.00 0.05 0.05 65 1015.0
20260901223854 93 222 3.0 8.0 0.00 0.05 0.05 66 1014.9
20260901223349 93 212 5.0 7.0 0.00 0.05 0.05 66 1015.1
20260901222845 93 233 3.0 8.0 0.00 0.05 0.05 66 1015.0
20260901222341 94 243 3.0 7.0 0.00 0.05 0.05 66 1014.9
20260901221837 94 231 2.0 4.0 0.00 0.05 0.05 65 1015.0
20260901221332 93 205 7.0 8.0 0.00 0.05 0.05 66 1014.9
20260901220832 93 237 3.0 7.0 0.00 0.05 0.05 67 1015.1
20260901220331 94 227 3.0 8.0 0.00 0.05 0.05 66 1015.1
20260901215830 94 219 5.0 9.0 0.00 0.05 0.05 65 1014.9
20260901215329 94 229 5.0 9.0 0.00 0.05 0.05 65 1014.9
20260901214828 94 240 3.0 7.0 0.00 0.05 0.05 67 1014.8
20260901214327 94 199 10.0 13.0 0.00 0.05 0.05 66 1014.9
20260901213822 93 233 3.0 9.0 0.00 0.05 0.05 68 1014.9
20260901213322 93 244 2.0 8.0 0.00 0.05 0.05 69 1014.8
20260901212816 93 212 4.0 11.0 0.00 0.05 0.05 69 1014.9
20260901212312 93 212 2.0 11.0 0.00 0.05 0.05 69 1014.8
20260901211807 93 220 2.0 9.0 0.00 0.05 0.05 68 1015.0
20260901211304 93 230 5.0 11.0 0.00 0.05 0.05 67 1015.2
20260901210759 94 192 5.0 10.0 0.00 0.05 0.05 63 1015.0
20260901210254 94 226 4.0 11.0 0.00 0.05 0.05 63 1015.2
20260901205750 95 215 5.0 8.0 0.00 0.05 0.05 62 1015.1
20260901205250 94 231 5.0 10.0 0.00 0.05 0.05 63 1015.2
20260901204746 95 219 4.0 9.0 0.00 0.05 0.05 63 1015.1
20260901204242 95 242 3.0 8.0 0.00 0.05 0.05 64 1014.9
20260901203737 95 212 6.0 14.0 0.00 0.05 0.05 62 1015.2
20260901203236 96 222 5.0 10.0 0.00 0.05 0.05 61 1015.1
20260901202736 95 211 5.0 9.0 0.00 0.05 0.05 62 1015.3
20260901202232 95 276 3.0 8.0 0.00 0.05 0.05 62 1015.1
20260901201726 95 218 5.0 12.0 0.00 0.05 0.05 63 1015.3
20260901201221 94 210 4.0 11.0 0.00 0.05 0.05 64 1015.2
20260901200720 95 218 14.0 14.0 0.00 0.05 0.05 62 1015.2
20260901200216 94 202 8.0 15.0 0.00 0.05 0.05 64 1015.2
20260901195714 96 215 5.0 7.0 0.00 0.05 0.05 62 1015.2
20260901195208 95 206 2.0 10.0 0.00 0.05 0.05 62 1015.4
20260901194704 95 214 8.0 11.0 0.00 0.05 0.05 61 1015.4
20260901194158 94 177 2.0 9.0 0.00 0.05 0.05 62 1015.5
20260901193655 94 211 5.0 12.0 0.00 0.05 0.05 62 1015.6
20260901193148 95 252 3.0 9.0 0.00 0.05 0.05 64 1015.5
20260901192643 95 242 4.0 8.0 0.00 0.05 0.05 65 1015.4
20260901192138 94 216 9.0 10.0 0.00 0.05 0.05 64 1015.5
20260901191634 94 226 3.0 11.0 0.00 0.05 0.05 66 1015.5
20260901191130 94 185 3.0 9.0 0.00 0.05 0.05 65 1015.6
20260901190626 93 244 3.0 7.0 0.00 0.05 0.05 68 1015.6
20260901190125 93 251 4.0 8.0 0.00 0.05 0.05 65 1015.7
20260901185623 93 216 8.0 14.0 0.00 0.05 0.05 66 1015.7
20260901185122 93 253 4.0 8.0 0.00 0.05 0.05 66 1015.8
20260901184618 93 217 5.0 13.0 0.00 0.05 0.05 66 1015.7
20260901184113 92 208 6.0 16.0 0.00 0.05 0.05 68 1015.8
20260901183608 94 276 3.0 11.0 0.00 0.05 0.05 67 1015.7
20260901183103 93 263 5.0 10.0 0.00 0.05 0.05 68 1016.0
20260901182600 93 247 3.0 8.0 0.00 0.05 0.05 66 1015.9
20260901182059 94 293 1.0 11.0 0.00 0.05 0.05 65 1015.9
20260901181558 93 215 4.0 8.0 0.00 0.05 0.05 70 1015.9
20260901181052 91 206 5.0 14.0 0.00 0.05 0.05 72 1015.9
20260901180551 92 164 3.0 9.0 0.00 0.05 0.05 72 1015.9
20260901180046 91 255 3.0 11.0 0.00 0.05 0.05 71 1015.8
20260901175540 91 238 4.0 14.0 0.00 0.05 0.05 71 1015.8
20260901175034 92 159 5.0 10.0 0.00 0.05 0.05 70 1015.8
20260901174531 92 220 4.0 8.0 0.00 0.05 0.05 72 1016.1
20260901174027 92 217 3.0 8.0 0.00 0.05 0.05 70 1015.8
20260901173526 91 226 3.0 10.0 0.00 0.05 0.05 72 1016.0
20260901173022 90 189 3.0 9.0 0.00 0.05 0.05 72 1016.1
20260901172518 90 245 4.0 7.0 0.00 0.05 0.05 74 1016.1
20260901172016 90 217 5.0 9.0 0.00 0.05 0.05 72 1016.1
20260901171515 90 189 5.0 8.0 0.00 0.05 0.05 74 1016.2
20260901171014 90 241 3.0 6.0 0.00 0.05 0.05 73 1016.1
20260901170508 88 221 3.0 9.0 0.00 0.05 0.05 75 1016.2
20260901170009 89 184 4.0 7.0 0.00 0.05 0.05 75 1016.4
20260901165503 88 194 3.0 11.0 0.00 0.05 0.05 75 1016.2
20260901164958 89 194 4.0 4.0 0.00 0.05 0.05 75 1016.4
20260901164454 86 161 5.0 8.0 0.00 0.05 0.05 78 1016.3
20260901163949 86 237 3.0 7.0 0.00 0.05 0.05 78 1016.3
20260901163444 86 191 3.0 6.0 0.00 0.05 0.05 79 1016.3
20260901162942 85 220 5.0 8.0 0.00 0.05 0.05 80 1016.5
20260901162432 86 209 4.0 11.0 0.00 0.05 0.05 79 1016.4
20260901161932 86 198 5.0 6.0 0.00 0.05 0.05 79 1016.4
20260901161431 85 199 4.0 9.0 0.00 0.05 0.05 80 1016.5
20260901160926 85 206 9.0 10.0 0.00 0.05 0.05 79 1016.6
20260901160422 85 215 4.0 7.0 0.00 0.05 0.05 79 1016.4
20260901155921 86 290 0.0 5.0 0.00 0.05 0.05 77 1016.4
20260901155416 86 238 4.0 7.0 0.00 0.05 0.05 78 1016.4
20260901154913 86 225 4.0 6.0 0.00 0.05 0.05 79 1016.4
20260901154412 86 245 4.0 9.0 0.00 0.05 0.05 77 1016.4
20260901153906 87 247 3.0 5.0 0.00 0.05 0.05 76 1016.4
20260901153406 87 245 2.0 4.0 0.00 0.05 0.05 76 1016.3
20260901152900 86 306 0.0 8.0 0.00 0.05 0.05 77 1016.5
20260901152355 85 242 2.0 7.0 0.00 0.05 0.05 78 1016.3
20260901151849 85 219 3.0 7.0 0.00 0.05 0.05 78 1016.4
20260901151344 85 280 2.0 6.0 0.00 0.05 0.05 78 1016.3
20260901150843 86 246 1.0 5.0 0.00 0.05 0.05 76 1016.2
20260901150341 85 275 1.0 4.0 0.00 0.05 0.05 78 1016.2
20260901145838 83 258 3.0 6.0 0.00 0.05 0.05 80 1016.3
20260901145333 83 233 2.0 6.0 0.00 0.05 0.05 80 1016.3
20260901144828 83 290 1.0 7.0 0.00 0.05 0.05 81 1016.2
20260901144324 81 268 1.0 6.0 0.00 0.05 0.05 83 1016.2
20260901143820 82 223 3.0 7.0 0.00 0.05 0.05 83 1016.1
20260901143316 81 200 3.0 7.0 0.00 0.05 0.05 84 1016.1
20260901142812 81 243 2.0 10.0 0.00 0.05 0.05 85 1016.1
20260901142310 80 210 5.0 7.0 0.00 0.05 0.05 86 1016.2
20260901141806 79 212 4.0 11.0 0.00 0.05 0.05 87 1016.3
20260901141301 79 211 7.0 7.0 0.00 0.05 0.05 87 1016.4
20260901140800 79 210 7.0 9.0 0.00 0.05 0.05 87 1016.1
20260901140258 79 203 6.0 10.0 0.00 0.05 0.05 87 1016.0
20260901135754 79 204 6.0 8.0 0.00 0.05 0.05 87 1016.2
20260901135253 78 241 3.0 7.0 0.00 0.05 0.05 88 1016.2
20260901134750 77 202 3.0 6.0 0.00 0.05 0.05 90 1016.3
20260901134249 77 207 3.0 7.0 0.00 0.05 0.05 90 1016.4
20260901133748 77 265 0.0 9.0 0.00 0.05 0.05 91 1016.2
20260901133243 77 214 4.0 5.0 0.00 0.05 0.05 92 1016.1
20260901132741 76 247 2.0 8.0 0.00 0.05 0.05 93 1016.5
20260901132236 76 242 2.0 4.0 0.00 0.05 0.05 94 1016.3
20260901131731 75 205 3.0 5.0 0.00 0.05 0.05 94 1016.5
20260901131230 75 224 2.0 4.0 0.00 0.05 0.05 94 1016.7
20260901130726 75 223 2.0 5.0 0.00 0.05 0.05 94 1016.7
20260901130225 75 206 4.0 5.0 0.00 0.05 0.05 95 1016.7
20260901125723 75 200 4.0 5.0 0.00 0.05 0.05 95 1016.7
20260901125218 75 230 1.0 3.0 0.00 0.05 0.05 95 1016.5
20260901124712 75 200 2.0 4.0 0.00 0.05 0.05 95 1016.5
20260901124207 75 200 1.0 4.0 0.00 0.05 0.05 95 1016.3
20260901123707 74 218 2.0 3.0 0.00 0.05 0.05 95 1016.4
20260901123202 74 215 3.0 4.0 0.00 0.05 0.05 95 1016.2
20260901122700 74 208 2.0 4.0 0.00 0.05 0.05 95 1016.3
20260901122155 74 201 5.0 6.0 0.00 0.05 0.05 95 1016.1
20260901121649 74 216 2.0 7.0 0.00 0.05 0.05 95 1016.0
20260901121144 74 211 5.0 7.0 0.00 0.05 0.05 96 1015.8
20260901120639 74 215 3.0 5.0 0.00 0.05 0.05 96 1015.7
20260901120133 74 181 2.0 4.0 0.02 0.05 0.05 96 1015.7
20260901115629 74 203 2.0 5.0 0.02 0.05 0.05 96 1015.7
20260901115125 74 205 3.0 5.0 0.00 0.05 0.05 96 1015.8
20260901114622 74 240 2.0 5.0 0.00 0.05 0.05 96 1016.0
20260901114120 74 208 3.0 5.0 0.00 0.05 0.05 95 1015.8
20260901113619 74 230 0.0 3.0 0.00 0.05 0.05 95 1015.7
20260901113114 74 210 2.0 4.0 0.00 0.05 0.05 95 1015.7
20260901112609 74 217 2.0 3.0 0.00 0.05 0.05 96 1015.7
20260901112103 74 239 1.0 3.0 0.00 0.05 0.05 96 1015.8
20260901111602 74 188 2.0 3.0 0.00 0.05 0.05 96 1015.3
20260901111101 74 29 0.0 1.0 0.00 0.05 0.05 95 1015.5
20260901110556 74 224 0.0 3.0 0.00 0.05 0.05 95 1015.3
20260901110052 75 188 2.0 4.0 0.00 0.05 0.05 95 1015.3
20260901105549 75 222 3.0 5.0 0.00 0.05 0.05 95 1015.3
20260901105042 74 196 2.0 8.0 0.00 0.05 0.05 95 1015.3
20260901104539 74 237 3.0 8.0 0.00 0.05 0.05 95 1015.3
20260901104033 75 211 3.0 7.0 0.00 0.05 0.05 95 1015.3
20260901103528 75 210 3.0 5.0 0.00 0.05 0.05 95 1015.4
20260901103023 75 205 3.0 6.0 0.00 0.05 0.05 94 1015.1
20260901102518 75 222 1.0 5.0 0.09 0.05 0.05 93 1015.0
20260901102013 76 222 3.0 6.0 0.09 0.05 0.05 92 1015.0
20260901101508 76 209 3.0 6.0 0.00 0.03 0.03 91 1015.3
20260901101002 75 212 4.0 7.0 0.00 0.03 0.03 92 1015.6
20260901100501 75 246 1.0 3.0 0.00 0.03 0.03 92 1015.5
20260901100000 76 251 0.0 3.0 0.00 0.03 0.03 91 1015.3
20260901095500 76 222 1.0 6.0 0.00 0.03 0.03 91 1015.3
20260901094958 76 220 3.0 6.0 0.00 0.03 0.03 90 1015.1
20260901094453 76 199 2.0 6.0 0.00 0.03 0.03 90 1015.2
20260901093952 76 198 4.0 5.0 0.00 0.04 0.04 90 1015.2
20260901093447 76 195 3.0 4.0 0.02 0.04 0.04 90 1015.3
20260901092942 76 217 3.0 7.0 0.00 0.03 0.03 89 1015.1
20260901092438 76 248 0.0 4.0 0.00 0.03 0.03 90 1015.2
20260901091933 76 210 4.0 5.0 0.00 0.03 0.03 89 1015.1
20260901091428 77 201 5.0 8.0 0.00 0.03 0.03 88 1014.9
20260901090924 77 249 2.0 4.0 0.00 0.03 0.03 88 1015.1
20260901090423 77 218 2.0 8.0 0.00 0.03 0.03 87 1015.1
20260901085919 77 266 3.0 5.0 0.00 0.03 0.03 87 1015.0
20260901085414 77 258 3.0 6.0 0.00 0.03 0.03 87 1015.0
20260901084911 77 234 4.0 8.0 0.00 0.03 0.03 87 1015.2
20260901084407 77 198 3.0 10.0 0.00 0.01 0.01 86 1015.0
20260901083902 77 229 3.0 11.0 0.00 0.01 0.01 87 1015.1
20260901083401 77 237 4.0 7.0 0.00 0.01 0.01 88 1015.0
20260901082859 77 223 2.0 4.0 0.00 0.01 0.01 89 1014.9
20260901082355 77 249 2.0 6.0 0.00 0.01 0.01 88 1015.3
20260901081850 77 209 2.0 9.0 0.02 0.01 0.01 88 1015.1
20260901081345 76 215 3.0 7.0 0.02 0.01 0.01 89 1015.0
20260901080839 77 172 0.0 3.0 0.00 0.01 0.01 89 1015.1
20260901080333 77 238 2.0 4.0 0.05 0.01 0.01 88 1014.9
20260901075828 78 225 2.0 5.0 0.05 0.01 0.01 86 1015.0
20260901075324 78 216 3.0 7.0 0.00 0.00 0.00 84 1015.1
20260901074819 78 243 3.0 10.0 0.00 0.00 0.00 84 1014.8